1289001630449,30.4628
1289001690449,30.5332
1289001750449,30.5363
1289001810449,30.4794
1289001870449,30.4612
1289001930449,30.4423
1289001990449,30.4795
1289002050449,30.3478
1289002110449,30.4951
1289002170449,30.3938
1289002230449,30.2765
1289002290449,30.4282
1289002350449,30.3853
1289002410449,30.4589
1289002470449,30.4238
1289002530449,30.4151
1289002590449,30.3645
1289002650449,30.3833
1289002710449,30.5672
1289002770449,30.3344
1289002830449,30.3729
1289002890449,30.3279
1289002950449,30.3852
1289003010449,30.3402
1289003070449,30.2614
1289003130449,30.3715
1289003190449,30.3387
1289003250449,30.2846
1289003310449,30.3698
1289003370449,30.3568
1289003430449,30.3605
1289003490449,30.3565
1289003550449,30.2935
1289003610449,30.1455
1289003670449,30.2996
1289003730449,30.2488
1289003790449,30.3334
1289003850449,30.1967
1289003910449,30.2714
1289003970449,30.1867
1289004030449,30.1803
1289004090449,30.2892
1289004150449,30.1330
1289004210449,30.1950
1289004270449,30.0890
1289004330449,30.2199
1289004390449,30.2271
1289004450449,30.1939
1289004510449,30.1059
1289004570449,30.2198
1289004630449,30.2188
1289004690449,30.2562
1289004750449,30.2248
1289004810449,30.2284
1289004870449,30.2782
1289004930449,30.2855
1289004990449,30.0983
1289005050449,30.1113
1289005110449,30.1327
1289005170449,30.1122
1289005230460,30.1307
1289005290460,30.2072
1289005350460,30.1392
1289005410460,30.1419
1289005470460,30.2144
1289005530460,30.2162
1289005590460,30.1558
1289005650460,30.2194
1289005710460,30.2310
1289005770460,30.1910
1289005830460,30.1357
1289005890460,30.0880
1289005950460,30.1846
1289006010460,30.1943
1289006070460,30.0901
1289006130460,30.1629
1289006190460,30.1360
1289006250460,30.1269
1289006310460,30.1827
1289006370460,30.2999
1289006430460,30.1913
1289006490460,30.2194
1289006550460,30.2057
1289006610460,30.1743
1289006670460,30.2032
1289006730460,30.1030
1289006790460,30.0617
1289006850460,30.2283
1289006910460,30.1385
1289006970460,30.0843
1289007030460,30.2607
1289007090460,30.2116
1289007150460,30.1397
1289007210460,30.1183
1289007270460,30.3222
1289007330460,30.1576
1289007390460,30.1061
1289007450460,30.1378
1289007510460,30.2524
1289007570460,30.2587
1289007630460,30.1756
1289007690460,30.2752
1289007750460,30.1526
1289007810460,30.0909
1289007870460,30.2523
1289007930460,30.1619
1289007990460,30.1803
1289008050460,30.2768
1289008110460,30.2033
1289008170460,30.1184
1289008230460,30.1931
1289008290460,30.2449
1289008350460,30.1916
1289008410460,30.3036
1289008470460,30.2860
1289008530460,30.2446
1289008590460,30.2312
1289008650460,30.1524
1289008710460,30.1977
1289008770460,30.2939
1289008830470,30.1778
1289008890470,30.2594
1289008950470,30.2690
1289009010470,30.2107
1289009070470,30.1930
1289009130470,30.2004
1289009190470,30.1928
1289009250470,30.1836
1289009310470,30.2662
1289009370470,30.2706
1289009430470,30.1958
1289009490470,30.2361
1289009550470,30.1835
1289009610470,30.2657
1289009670470,30.2336
1289009730470,30.2519
1289009790470,30.2894
1289009850470,30.3649
1289009910470,30.3148
1289009970470,30.3491
1289010030470,30.2567
1289010090470,30.3657
1289010150470,30.3504
1289010210470,30.2033
1289010270470,30.2556
1289010330470,30.2476
1289010390470,30.2679
1289010450470,30.2766
1289010510470,30.3191
1289010570470,30.3209
1289010630470,30.2610
1289010690470,30.3449
1289010750470,30.2151
1289010810470,30.3245
1289010870470,30.3099
1289010930470,30.3701
1289010990470,30.3792
1289011050470,30.4219
1289011110470,30.2977
1289011170470,30.3802
1289011230470,30.3756
1289011290470,30.4514
1289011350470,30.3207
1289011410470,30.3343
1289011470470,30.3168
1289011530470,30.3165
1289011590470,30.2255
1289011650470,30.3306
1289011710470,30.1475
1289011770470,30.2914
1289011830470,30.1785
1289011890470,30.2205
1289011950470,30.2591
1289012010470,30.2744
1289012070470,30.2880
1289012130470,30.1387
1289012190470,30.2420
1289012250470,30.1859
1289012310470,30.1946
1289012370470,30.2016
1289012430479,30.2022
1289012490479,30.2345
1289012550479,30.1082
1289012610479,30.1694
1289012670479,30.2051
1289012730479,30.2822
1289012790479,30.2748
1289012850479,30.3186
1289012910479,30.4496
1289012970479,30.4506
1289013030479,30.4435
1289013090479,30.4342
1289013150479,30.4501
1289013210479,30.4740
1289013270479,30.4239
1289013330479,30.5898
1289013390479,30.3967
1289013450479,30.5197
1289013510479,30.4304
1289013570479,30.4307
1289013630479,30.2748
1289013690479,30.3955
1289013750479,30.3254
1289013810479,30.1804
1289013870479,30.2823
1289013930479,30.3027
1289013990479,30.2875
1289014050479,30.1501
1289014110479,30.2468
1289014170479,30.1676
1289014230479,30.2424
1289014290479,30.2430
1289014350479,30.1215
1289014410479,30.1400
1289014470479,30.1831
1289014530479,30.0461
1289014590479,30.1771
1289014650479,30.1366
1289014710479,30.2021
1289014770479,30.0883
1289014830479,30.1324
1289014890479,30.0687
1289014950479,30.1379
1289015010479,30.0964
1289015070479,30.0947
1289015130479,30.0056
1289015190479,30.0221
1289015250479,30.0872
1289015310479,30.0348
1289015370479,30.1295
1289015430479,30.0301
1289015490479,30.0467
1289015550479,29.9301
1289015610479,29.9816
1289015670479,29.9812
1289015730479,29.9501
1289015790479,30.0781
1289015850479,29.9901
1289015910479,30.1186
1289015970479,30.0428
1289016030489,29.8917
1289016090489,29.9549
1289016150489,29.9504
1289016210489,30.0089
1289016270489,30.0323
1289016330489,29.9040
1289016390489,30.0359
1289016450489,29.9613
1289016510489,30.0142
1289016570489,30.0066
1289016630489,29.9446
1289016690489,29.9564
1289016750489,29.9573
1289016810489,29.9101
1289016870489,29.9390
1289016930489,29.8100
1289016990489,29.8591
1289017050489,29.8803
1289017110489,29.9646
1289017170489,29.9738
1289017230489,29.9006
1289017290489,29.8880
1289017350489,29.8388
1289017410489,29.8514
1289017470489,29.7958
1289017530489,29.8705
1289017590489,29.8518
1289017650489,29.8653
1289017710489,29.8436
1289017770489,29.8843
1289017830489,29.8352
1289017890489,29.8182
1289017950489,29.9559
1289018010489,29.8470
1289018070489,29.8003
1289018130489,29.8903
1289018190489,29.8527
1289018250489,29.9972
1289018310489,29.8037
1289018370489,29.8628
1289018430489,29.9609
1289018490489,30.1956
1289018550489,30.3444
1289018610489,30.5088
1289018670489,30.5892
1289018730489,30.5286
1289018790489,30.5752
1289018850489,30.4731
1289018910489,30.3520
1289018970489,30.3399
1289019030489,30.4995
1289019090489,30.3992
1289019150489,30.3910
1289019210489,30.2856
1289019270489,30.4261
1289019330489,30.3312
1289019390489,30.2884
1289019450489,30.2075
1289019510489,30.2960
1289019570489,30.1919
1289019630499,30.1115
1289019690499,30.1445
1289019750499,30.1965
1289019810499,30.1706
1289019870499,30.1213
1289019930499,30.2136
1289019990499,30.2268
1289020050499,30.2517
1289020110499,30.0715
1289020170499,30.1857
1289020230499,30.2125
1289020290499,30.3026
1289020350499,30.2471
1289020410499,30.1909
1289020470499,30.0763
1289020530499,30.1769
1289020590499,30.3070
1289020650499,30.1817
1289020710499,30.1644
1289020770499,30.1989
1289020830499,30.1564
1289020890499,30.2227
1289020950499,30.1992
1289021010499,30.1726
1289021070499,30.1050
1289021130499,30.1187
1289021190499,30.1709
1289021250499,30.1391
1289021310499,30.1327
1289021370499,30.1573
1289021430499,30.1320
1289021490499,30.0495
1289021550499,30.0456
1289021610499,30.2129
1289021670499,30.1184
1289021730499,30.1331
1289021790499,30.0480
1289021850499,30.0386
1289021910499,30.0793
1289021970499,30.0912
1289022030499,30.1525
1289022090499,30.0830
1289022150499,30.1377
1289022210499,30.1578
1289022270499,30.1217
1289022330499,30.1739
1289022390499,30.1404
1289022450499,30.0764
1289022510499,30.1347
1289022570499,30.1281
1289022630499,30.1101
1289022690499,30.1269
1289022750499,30.0916
1289022810499,30.0745
1289022870499,30.1446
1289022930499,30.2165
1289022990499,30.1792
1289023050499,30.2446
1289023110499,30.1873
1289023170499,30.2867
1289023230510,30.3542
1289023290510,30.2097
1289023350510,30.2856
1289023410510,30.3036
1289023470510,30.2999
1289023530510,30.2351
1289023590510,30.2961
1289023650510,30.2467
1289023710510,30.2612
1289023770510,30.2678
1289023830510,30.3362
1289023890510,30.3614
1289023950510,30.2918
1289024010510,30.3088
1289024070510,30.3253
1289024130510,30.3807
1289024190510,30.3279
1289024250510,30.4186
1289024310510,30.4085
1289024370510,30.4014
1289024430510,30.3905
1289024490510,30.4725
1289024550510,30.5991
1289024610510,30.4891
1289024670510,30.5321
1289024730510,30.5461
1289024790510,30.5684
1289024850510,30.5510
1289024910510,30.6318
1289024970510,30.5519
1289025030510,30.5255
1289025090510,30.6330
1289025150510,30.6743
1289025210510,30.5753
1289025270510,30.5529
1289025330510,30.5666
1289025390510,30.5841
1289025450510,30.6194
1289025510510,30.4455
1289025570510,30.4575
1289027010520,29.4619
1289027070520,30.1830
1289027130520,30.3630
1289027190520,30.6162
1289027250520,30.4827
1289027310520,30.5004
1289027370520,30.3985
1289027430520,30.4377
1289027490520,30.5458
1289027550520,30.5157
1289027610520,30.5119
1289027670520,30.3897
1289027730520,30.5062
1289027790520,30.4706
1289027850520,30.5075
1289027910520,30.4897
1289027970520,30.4012
1289028030520,30.4341
1289028090520,30.4135
1289028150520,30.3826
1289028210520,30.5084
1289028270520,30.4391
1289028330520,30.5297
1289028390520,30.4365
1289028450520,30.4565
1289028510520,30.4731
1289028570520,30.4893
1289028630520,30.4721
1289028690520,30.5273
1289028750520,30.4787
1289028810520,30.5979
1289028870520,30.5485
1289028930520,30.5332
1289028990520,30.5533
1289029050520,30.5352
1289029110520,30.5966
1289029170520,30.4595
1289029230520,30.6218
1289029290520,30.5423
1289029350520,30.4835
1289029410520,30.6237
1289029470520,30.6543
1289029530520,30.4799
1289029590520,30.5321
1289029650520,30.4872
1289029710520,30.5000
1289029770520,30.6073
1289029830520,30.6265
1289029890520,30.6102
1289029950520,30.6052
1289030010520,30.5949
1289030070520,30.5201
1289030130520,30.6187
1289030190520,30.5273
1289030250520,30.6045
1289030310520,30.5170
1289030370520,30.4889
1289030430530,30.4986
1289030490530,30.4265
1289030550530,30.6700
1289030610530,30.5451
1289030670530,30.6209
1289030730530,30.5283
1289030790530,30.5154
1289030850530,30.5772
1289030910530,30.5534
1289030970530,30.4385
1289031030530,30.4537
1289031090530,30.5444
1289031150530,30.4990
1289031210530,30.4541
1289031270530,30.4867
1289031330530,30.5277
1289031390530,30.5396
1289031450530,30.5531
1289031510530,30.5511
1289031570530,30.4883
1289031630530,30.6065
1289031690530,30.5786
1289031750530,30.6389
1289031810530,30.6017
1289031870530,30.4821
1289031930530,30.4961
1289031990530,30.5115
1289032050530,30.7581
1289032110530,30.7814
1289032170530,30.7722
1289032230530,30.7754
1289032290530,30.6767
1289032350530,30.6286
1289032410530,30.5886
1289032470530,30.5287
1289032530530,30.5490
1289032590530,30.5462
1289032650530,30.5464
1289032710530,30.6248
1289032770530,30.4468
1289032830530,30.4976
1289032890530,30.4911
1289032950530,30.4670
1289033010530,30.5234
1289033070530,30.4123
1289033130530,30.4462
1289033190530,30.3840
1289033250530,30.3578
1289033310530,30.3670
1289033370530,30.4017
1289033430530,30.3635
1289033490530,30.3337
1289033550530,30.3441
1289033610530,30.4048
1289033670530,30.3741
1289033730530,30.4119
1289033790530,30.2893
1289033850530,30.2577
1289033910530,30.3021
1289033970530,30.3431
1289034030541,30.2271
1289034090541,30.2939
1289034150541,30.2676
1289034210541,30.2931
1289034270541,30.2727
1289034330541,30.3417
1289034390541,30.2403
1289034450541,30.2801
1289034510541,30.2738
1289034570541,30.2774
1289034630541,30.3793
1289034690541,30.3921
1289034750541,30.3965
1289034810541,30.3809
1289034870541,30.2239
1289034930541,30.3880
1289034990541,30.3906
1289035050541,30.3707
1289035110541,30.4105
1289035170541,30.4279
1289035230541,30.3673
1289035290541,30.3874
1289035350541,30.4892
1289035410541,30.5949
1289035470541,30.5031
1289035530541,30.6184
1289035590541,30.4771
1289035650541,30.5598
1289035710541,30.4821
1289035770541,30.6193
1289035830541,30.5120
1289035890541,30.7043
1289035950541,30.4605
1289036010541,30.4301
1289036070541,30.4486
1289036130541,30.5171
1289036190541,30.5310
1289036250541,30.5617
1289036310541,30.4841
1289036370541,30.3859
1289036430541,30.3941
1289036490541,30.4201
1289036550541,30.4210
1289036610541,30.4971
1289036670541,30.4213
1289036730541,30.4433
1289036790541,30.4195
1289036850541,30.4470
1289036910541,30.4397
1289036970541,30.5032
1289037030541,30.3746
1289037090541,30.4289
1289037150541,30.4114
1289037210541,30.5664
1289037270541,30.4937
1289037330541,30.4488
1289037390541,30.5300
1289037450541,30.5062
1289037510541,30.4310
1289037570541,30.4944
1289037630552,30.4799
1289037690552,30.4402
1289037750552,30.4049
1289037810552,30.5478
1289037870552,30.5943
1289037930552,30.4718
1289037990552,30.4660
1289038050552,30.4380
1289038110552,30.4586
1289038170552,30.5653
1289038230552,30.4932
1289038290552,30.4566
1289038350552,30.6348
1289038410552,30.5794
1289038470552,30.4846
1289038530552,30.5591
1289038590552,30.6044
1289038650552,30.3868
1289038710552,30.5654
1289038770552,30.4474
1289038830552,30.4861
1289038890552,30.5404
1289038950552,30.4584
1289039010552,30.5421
1289039070552,30.6102
1289039130552,30.5504
1289039190552,30.4848
1289039250552,30.4652
1289039310552,30.5607
1289039370552,30.5697
1289039430552,30.5000
1289039490552,30.5393
1289039550552,30.5415
1289039610552,30.5263
1289039670552,30.5065
1289039730552,30.5700
1289039790552,30.6082
1289039850552,30.5401
1289039910552,30.5713
1289039970552,30.5713
1289040030552,30.4687
1289040090552,30.5587
1289040150552,30.5295
1289040210552,30.6018
1289040270552,30.5581
1289040330552,30.5401
1289040390552,30.6485
1289040450552,30.5192
1289040510552,30.5311
1289040570552,30.6139
1289040630552,30.4988
1289040690552,30.5936
1289040750552,30.6073
1289040810552,30.5236
1289040870552,30.5142
1289040930552,30.6893
1289040990552,30.5356
1289041050552,30.4276
1289041110552,30.5525
1289041170552,30.5299
1289041230563,30.5301
1289041290563,30.5606
1289041350563,30.6034
1289041410563,30.5690
1289041470563,30.5573
1289041530563,30.5301
1289041590563,30.4508
1289041650563,30.5132
1289041710563,30.6271
1289041770563,30.5798
1289041830563,30.6833
1289041890563,30.5221
1289042490563,30.5540
1289042550563,30.5503
1289042610563,30.5470
1289042670563,30.5998
1289042730563,30.5571
1289042790563,30.6143
1289042850563,30.5537
1289042910563,30.5506
1289042970563,30.5159
1289043030563,30.5610
1289043090563,30.6614
1289043150563,30.5336
1289043210563,30.7166
1289043270563,30.6024
1289043330563,30.6351
1289043390563,30.6264
1289043450563,30.7088
1289043510563,30.7178
1289043570563,30.6642
1289043630563,30.7303
1289043690563,30.6780
1289043750563,30.6157
1289043810563,30.5966
1289043870563,30.6836
1289043930563,30.7005
1289043990563,30.6497
1289044050563,30.7178
1289044110563,30.7593
1289044170563,30.6044
1289044230563,30.7064
1289044290563,30.8269
1289044350563,30.7917
1289044410563,30.7847
1289044470563,30.7125
1289044530563,30.8102
1289044590563,30.8074
1289044650563,30.8222
1289044710563,30.8009
1289044770563,30.8239
1289044830575,30.7022
1289044890575,30.7121
1289044950575,30.7390
1289045010575,30.9112
1289045070575,30.7789
1289045130575,30.7947
1289045190575,30.7784
1289045250575,30.8918
1289045310575,30.8855
1289045370575,30.8386
1289045430575,30.8569
1289045490575,30.7809
1289045550575,30.9177
1289045610575,30.8584
1289045670575,30.8538
1289045730575,30.8642
1289045790575,30.8949
1289045850575,30.9697
1289045910575,30.9282
1289045970575,30.9722
1289046030575,30.9480
1289046090575,30.9415
1289046150575,30.9831
1289046210575,30.9529
1289046270575,30.9505
1289046330575,31.0212
1289046390575,30.9926
1289046450575,31.0085
1289046510575,30.9342
1289046570575,31.3759
1289046630575,31.3564
1289046690575,31.0372
1289046750575,31.0172
1289046810575,31.0565
1289046870575,31.1145
1289046930575,31.0790
1289046990575,31.1179
1289047050575,30.9654
1289047110575,31.0877
1289047170575,30.9904
1289047230575,31.0167
1289047290575,30.9820
1289047350575,31.0679
1289047410575,31.1270
1289047470575,31.0793
1289047530575,31.0002
1289047590575,31.1214
1289047650575,31.0396
1289047710575,31.0916
1289047770575,30.9948
1289047830575,31.0193
1289047890575,31.0539
1289047950575,31.5117
1289048010575,31.0381
1289048070575,30.9212
1289048130575,31.0017
1289048190575,31.0711
1289048250575,31.0396
1289048310575,31.0353
1289048370575,31.1231
1289048430587,31.1209
1289048490587,31.1394
1289048550587,31.0440
1289048610587,30.9997
1289048670587,31.0341
1289048730587,31.1184
1289048790587,31.0507
1289048850587,30.9956
1289048910587,31.1165
1289048970587,31.0702
1289049030587,31.0328
1289049090587,30.9888
1289049150587,31.0119
1289049210587,31.0289
1289049270587,30.9824
1289049330587,30.8892
1289049390587,31.0227
1289049450587,30.9732
1289049510587,30.9154
1289049570587,30.9999
1289049630587,30.9324
1289049690587,30.9017
1289049750587,30.7763
1289049810587,30.8772
1289049870587,30.9504
1289049930587,30.8712
1289049990587,30.8538
1289050050587,30.8313
1289050110587,30.8257
1289050170587,30.8556
1289050230587,30.7827
1289050290587,30.8495
1289050350587,30.7912
1289050410587,30.8575
1289050470587,30.7568
1289050530587,30.8456
1289050590587,30.7494
1289050650587,30.7943
1289050710587,30.7401
1289050770587,30.7968
1289050830587,30.7050
1289050890587,30.7940
1289050950587,30.7575
1289051010587,30.7377
1289051070587,30.7697
1289051130587,30.7610
1289051190587,30.9274
1289051250587,30.7730
1289051310587,30.8050
1289051370587,30.7665
1289051430587,30.7954
1289051490587,30.8030
1289051550587,30.7957
1289051610587,30.7464
1289051670587,30.7640
1289051730587,30.6889
1289051790587,30.6591
1289051850587,30.6821
1289051910587,30.7198
1289051970587,30.7450
1289052030599,30.6948
1289052090599,30.7349
1289052150599,30.7421
1289052210599,30.7348
1289052270599,30.7358
1289052330599,30.7481
1289052390599,30.7111
1289052450599,30.7113
1289052510599,30.6583
1289052570599,30.7249
1289052630599,30.7086
1289052690599,30.5470
1289052750599,30.6434
1289052810599,30.6963
1289052870599,30.6893
1289052930599,30.7029
1289052990599,30.7549
1289053050599,30.6786
1289053110599,30.7277
1289053170599,30.8607
1289053230599,30.7432
1289053290599,30.7127
1289053350599,30.7323
1289053410599,30.7983
1289053470599,30.7169
1289053530599,30.7462
1289053590599,30.6627
1289053650599,30.7444
1289053710599,30.7449
1289053770599,30.7635
1289053830599,30.7425
1289053890599,30.6793
1289053950599,30.7255
1289054010599,30.6352
1289054070599,30.6645
1289054130599,30.7104
1289054190599,30.6939
1289054250599,30.5976
1289054310599,30.5084
1289054370599,30.6838
1289054430599,30.6357
1289054490599,30.6141
1289054550599,30.6694
1289054610599,30.6113
1289054670599,30.6681
1289054730599,30.6376
1289054790599,30.5365
1289054850599,30.7017
1289054910599,30.6206
1289054970599,30.4898
1289055030599,30.5238
1289055090599,30.6287
1289055150599,30.5847
1289055210599,30.7025
1289055270599,30.4721
1289055330599,30.5492
1289055390599,30.4772
1289055450599,30.5890
1289055510599,30.5938
1289055570599,30.5242
1289055630611,30.5561
1289055690611,30.5134
1289055750611,30.4790
1289055810611,30.5649
1289055870611,30.4147
1289055930611,30.5400
1289055990611,30.4825
1289056050611,30.4286
1289056110611,30.4598
1289056170611,30.4812
1289056230611,30.4864
1289056290611,30.5948
1289056350611,30.5358
1289056410611,30.5742
1289056470611,30.6206
1289056530611,30.5993
1289056590611,30.5916
1289056650611,30.5811
1289056710611,30.6297
1289056770611,30.5993
1289056830611,30.6160
1289056890611,30.5757
1289056950611,30.5148
1289057010611,30.6176
1289057070611,30.5344
1289057130611,30.5701
1289057190611,30.6025
1289057250611,30.5156
1289057310611,30.5587
1289057370611,30.5984
1289057430611,30.6174
1289057490611,30.6630
1289057550611,30.8370
1289057610611,31.2947
1289057670611,31.3222
1289057730611,31.2693
1289057790611,31.1018
1289057850611,31.4284
1289057910611,31.7547
1289057970611,31.9808
1289058030611,32.5224
1289058090611,32.7541
1289058150611,32.4040
1289058210611,31.8975
1289058270611,31.7335
1289058330611,31.4449
1289058390611,31.4631
1289058450611,31.2721
1289058510611,31.1437
1289058570611,31.0405
1289058630611,30.9505
1289058690611,31.0128
1289058750611,30.8830
1289058810611,30.8997
1289058870611,30.9358
1289058930611,30.7731
1289058990611,30.7087
1289059050611,30.8904
1289059110611,30.7626
1289059170611,30.6534
1289059230623,30.6860
1289059290623,30.6900
1289059350623,30.7597
1289059410623,30.9299
1289059470623,30.8388
1289059530623,30.7082
1289059590623,30.7020
1289059650623,30.7728
1289059710623,30.9229
1289059770623,30.7656
1289059830623,30.7309
1289059890623,30.7661
1289059950623,30.7146
1289060010623,30.6989
1289060070623,30.6025
1289060130623,30.6437
1289060190623,30.6386
1289060250623,30.6437
1289060310623,30.5411
1289060370623,30.5447
1289060430623,30.5097
1289060490623,30.6577
1289060550623,30.6652
1289060610623,30.6945
1289060670623,30.8071
1289060730623,30.7617
1289060790623,30.5217
1289060850623,30.4501
1289060910623,30.4415
1289060970623,30.7058
1289061030623,30.7681
1289061090623,30.6802
1289061150623,30.8203
1289061210623,30.8161
1289061270623,30.9828
1289061330623,30.9624
1289061390623,31.3847
1289061450623,31.2586
1289061510623,31.3983
1289061570623,31.3120
1289061630623,31.2127
1289061690623,31.1052
1289061750623,31.1077
1289061810623,31.3263
1289061870623,31.3193
1289061930623,31.1505
1289061990623,31.1643
1289062050623,31.1624
1289062110623,31.1414
1289062170623,31.1501
1289062230623,31.2363
1289062290623,31.3149
1289062350623,31.3280
1289062410623,31.3210
1289062470623,31.3270
1289062530623,31.2460
1289062590623,31.2441
1289062650623,31.0855
1289062710623,31.0352
1289062770623,31.0896
1289062830635,31.0174
1289062890635,31.0034
1289062950635,31.0084
1289063010635,31.0019
1289063070635,31.1501
1289063130635,31.1262
1289063190635,31.0176
1289063250635,30.9256
1289063310635,31.0262
1289063370635,31.0093
1289063430635,30.9138
1289063490635,30.8113
1289063550635,30.7666
1289063610635,30.6602
1289063670635,30.6963
1289063730635,30.6194
1289063790635,30.5592
1289063850635,30.6414
1289063910635,30.6602
1289063970635,30.6520
1289064030635,30.6141
1289064090635,30.6305
1289064150635,30.6383
1289064210635,30.5253
1289064270635,30.6434
1289064330635,30.5669
1289064390635,30.6836
1289064450635,30.6455
1289064510635,30.6938
1289064570635,30.6193
1289064630635,30.6512
1289064690635,30.7198
1289064750635,30.7694
1289064810635,30.6501
1289064870635,30.6921
1289064930635,30.6876
1289064990635,30.7652
1289065050635,30.6515
1289065110635,30.6462
1289065170635,30.6522
1289065230635,30.6795
1289065290635,30.6940
1289065350635,30.6428
1289065410635,30.7375
1289065470635,30.7083
1289065530635,30.6563
1289065590635,30.7780
1289065650635,30.7535
1289065710635,30.8734
1289065770635,31.0002
1289065830635,31.0327
1289065890635,31.1149
1289065950635,31.1236
1289066010635,31.2893
1289066070635,31.2118
1289066130635,31.3051
1289066190635,31.4626
1289066250635,31.3647
1289066310635,31.6253
1289066370635,31.5295
1289066430647,31.5716
1289066490647,31.5617
1289066550647,31.6888
1289066610647,31.7120
1289066670647,31.7969
1289066730647,31.8338
1289066790647,31.8869
1289066850647,31.9122
1289066910647,31.8853
1289066970647,31.8232
1289067030647,31.9547
1289067090647,31.9016
1289067150647,31.8229
1289067210647,31.8385
1289067270647,31.8282
1289067330647,31.8451
1289067390647,31.7266
1289067450647,31.7423
1289067510647,31.7280
1289067570647,31.7522
1289067630647,31.6610
1289067690647,31.7837
1289067750647,31.7794
1289067810647,31.8174
1289067870647,31.7575
1289067930647,31.8813
1289067990647,31.7958
1289068050647,31.8341
1289068110647,31.7690
1289068170647,31.7106
1289068230647,31.7268
1289068290647,31.7845
1289068350647,31.6781
1289068410647,31.7011
1289068470647,31.8015
1289068530647,31.6486
1289068590647,31.6555
1289068650647,31.6836
1289068710647,31.6470
1289068770647,31.8326
1289068830647,31.7261
1289068890647,31.6854